Tri-Cities, TN

5:16 PM EST on December 12, 2019 (GMT -0500)
Tri-Cities Regional Tennessee / Virginia

Weather History for KTRI - October, 2019

Change the Weather History Date:

Wednesday, October 2, 2019

  Actual Average Record
Temperature  
Mean Temperature 78 °F 61 °F  
Max Temperature 93 °F 73 °F 93 °F (2019)
Min Temperature 63 °F 48 °F 29 °F (1946)
Degree Days  
Heating Degree Days 0 5  
Month to date heating degree days 0 10  
Since 1 July heating degree days 0 63  
Cooling Degree Days 13 1  
Month to date cooling degree days 27 2  
Year to date cooling degree days 1412 970  
Growing Degree Days 28 (Base 50)    
Moisture  
Dew Point 63 °F    
Average Humidity 63    
Maximum Humidity 93    
Minimum Humidity 33    
Precipitation  
Precipitation 0.00 in 0.07 in 1.22 in (1977)
Month to date precipitation 0.00 0.14  
Year to date precipitation 41.61 32.58  
Snow  
Snow 0.00 in 0.00 in - ()
Month to date snowfall 0.0 0.0  
Since 1 July snowfall 0.0 0.0  
Since 1 September snowfall 0.0 0.0  
Snow Depth 0.00 in    
Sea Level Pressure  
Sea Level Pressure 30.00 in    
Wind  
Wind Speed 3 mph (WSW)    
Max Wind Speed 14 mph    
Max Gust Speed 20 mph    
Visibility 9 miles    
Events      
T = Trace of Precipitation, MM = Missing Value Source: NWS Daily Summary

Daily Weather History Graph

Daily Weather History Graph

Search for Another Location

Airport or City:

Astronomy

Oct. 02, 2019 Rise Set
Actual Time 7:25 AM EDT 7:11 PM EDT
Civil Twilight 6:59 AM EDT 7:37 PM EDT
Nautical Twilight 6:29 AM EDT 8:07 PM EDT
Astronomical Twilight 5:59 AM EDT 8:37 PM EDT
Moon 11:43 AM EDT (10/2) 10:12 PM EDT (10/2)
Length of Visible Light 12h 37m
Length of Day
11h 46m
Waxing Crescent, 20% of the Moon is Illuminated
Oct 2
Waxing Crescent
Oct 5
First Quarter
Oct 13
Full
Oct 21
Last Quarter
Oct 27
New

Hourly Weather History & Observations

Time (EDT) Temp. Heat Index Dew Point Humidity Pressure Visibility Wind Dir Wind Speed Gust Speed Precip Events Conditions
12:53 AM 68.0 °F - 64.9 °F 90% 30.00 in 9.0 mi Calm Calm - N/A   Clear
1:53 AM 68.0 °F - 64.0 °F 87% 30.00 in 9.0 mi Calm Calm - N/A   Clear
2:53 AM 66.9 °F - 64.0 °F 90% 30.00 in 8.0 mi Calm Calm - N/A   Clear
3:53 AM 66.0 °F - 63.0 °F 90% 29.99 in 8.0 mi Calm Calm - N/A   Clear
4:53 AM 64.9 °F - 63.0 °F 93% 30.00 in 8.0 mi Calm Calm - N/A   Clear
5:53 AM 64.0 °F - 62.1 °F 93% 30.01 in 6.0 mi Calm Calm - N/A   Clear
6:53 AM 63.0 °F - 61.0 °F 93% 30.03 in 6.0 mi Calm Calm - N/A   Clear
7:53 AM 64.0 °F - 62.1 °F 93% 30.04 in 10.0 mi Calm Calm - N/A   Partly Cloudy
8:53 AM 69.1 °F - 64.9 °F 87% 30.06 in 10.0 mi Calm Calm - N/A   Scattered Clouds
9:53 AM 73.9 °F - 66.0 °F 76% 30.06 in 10.0 mi Calm Calm - N/A   Scattered Clouds
10:53 AM 79.0 °F - 66.0 °F 64% 30.05 in 10.0 mi Calm Calm - N/A   Scattered Clouds
11:53 AM 84.0 °F 86.3 °F 66.0 °F 55% 30.04 in 10.0 mi West 4.6 mph - N/A   Scattered Clouds
12:53 PM 89.1 °F 91.0 °F 64.9 °F 45% 30.02 in 10.0 mi West 6.9 mph - N/A   Scattered Clouds
1:53 PM 91.0 °F 92.6 °F 64.0 °F 41% 29.99 in 10.0 mi West 8.1 mph - N/A   Scattered Clouds
2:53 PM 91.0 °F 91.9 °F 63.0 °F 39% 29.96 in 10.0 mi SSW 10.4 mph - N/A   Scattered Clouds
3:53 PM 93.0 °F 93.0 °F 61.0 °F 34% 29.95 in 10.0 mi WSW 10.4 mph - N/A   Scattered Clouds
4:53 PM 91.9 °F 92.5 °F 62.1 °F 37% 29.93 in 10.0 mi SW 9.2 mph - N/A   Scattered Clouds
5:53 PM 91.0 °F 91.5 °F 62.1 °F 38% 29.93 in 10.0 mi WSW 9.2 mph - N/A   Scattered Clouds
6:53 PM 87.1 °F 87.8 °F 63.0 °F 44% 29.94 in 10.0 mi WSW 5.8 mph - N/A   Scattered Clouds
7:53 PM 80.1 °F 81.5 °F 63.0 °F 56% 29.96 in 10.0 mi Calm Calm - N/A   Scattered Clouds
8:53 PM 75.0 °F - 64.0 °F 69% 29.97 in 10.0 mi Calm Calm - N/A   Partly Cloudy
9:53 PM 72.0 °F - 63.0 °F 73% 29.98 in 10.0 mi Calm Calm - N/A   Clear
10:53 PM 69.1 °F - 63.0 °F 81% 29.99 in 10.0 mi Calm Calm - N/A   Clear
11:53 PM 66.9 °F - 63.0 °F 87% 29.99 in 10.0 mi Calm Calm - N/A   Clear